Change the Weather History Date:

Thursday, August 8, 2013

  Actual Average (KMVN) Record (KMVN)
Temperature  
Mean Temperature 92 °F -  
Max Temperature 118 °F 83 °F 102 °F (2007)
Min Temperature 66 °F 62 °F 51 °F (2004)
Cooling Degree Days 27    
Growing Degree Days 42 (Base 50)    
Moisture  
Dew Point 70 °F    
Average Humidity 89    
Maximum Humidity 94    
Minimum Humidity 52    
Precipitation  
Precipitation 0.00 in - - ()
Sea Level Pressure  
Sea Level Pressure 29.92 in    
Wind  
Wind Speed 1 mph (SSW)    
Max Wind Speed 8 mph    
Max Gust Speed -    
Visibility 7 miles    
Events Fog , Rain    
Averages and records for this station are not official NWS values.
T = Trace of Precipitation, MM = Missing Value Source: NWS Daily Summary

Daily Weather History Graph

Daily Weather History Graph

Search for Another Location

Airport or City:

Trip Planner

Search our weather history database for the weather conditions in past years. The results will help you decide how hot, cold, wet, or windy it might be!

Date:

Astronomy

Aug. 08, 2013 Rise Set
Actual Time 6:02 AM CDT 7:55 PM CDT
Civil Twilight 5:33 AM CDT 8:24 PM CDT
Nautical Twilight 4:58 AM CDT 8:59 PM CDT
Astronomical Twilight 4:20 AM CDT 9:36 PM CDT
Moon 7:46 AM CDT (8/8) 8:36 PM CDT (8/8)
Length of Visible Light 14h 51m
Length of Day
13h 53m
Waxing Crescent, 3% of the Moon is Illuminated
Aug 8
Waxing Crescent
Aug 14
First Quarter
Aug 20
Full
Aug 28
Last Quarter
Sep 5
New

Hourly Weather History & Observations

Time (CDT) Temp. Heat Index Dew Point Humidity Pressure Visibility Wind Dir Wind Speed Gust Speed Precip Events Conditions
12:15 AM 71.6 °F - 68.0 °F 88% 29.93 in 10.0 mi Calm Calm - N/A   Clear
12:35 AM 71.6 °F - 68.0 °F 88% 29.93 in 5.0 mi Calm Calm - N/A   Clear
12:55 AM 69.8 °F - 68.0 °F 94% 29.93 in 1.8 mi Calm Calm - N/A   Clear
1:15 AM 69.8 °F - 68.0 °F 94% 29.93 in 7.0 mi Calm Calm - N/A   Clear
1:35 AM 69.8 °F - 68.0 °F 94% 29.92 in 5.0 mi Calm Calm - N/A   Clear
1:55 AM 69.8 °F - 66.2 °F 88% 29.93 in 2.0 mi Calm Calm - N/A   Clear
2:15 AM 69.8 °F - 66.2 °F 88% 29.92 in 1.0 mi Calm Calm - N/A   Overcast
2:35 AM 69.8 °F - 66.2 °F 88% 29.91 in 0.5 mi Calm Calm - N/A Fog Fog
2:55 AM 68.0 °F - 66.2 °F 94% 29.91 in 0.2 mi Calm Calm - N/A Fog Fog
3:15 AM 68.0 °F - 66.2 °F 94% 29.91 in 3.0 mi Calm Calm - N/A   Mostly Cloudy
3:35 AM 68.0 °F - 66.2 °F 94% 29.91 in 5.0 mi Calm Calm - N/A   Mostly Cloudy
3:55 AM 69.8 °F - 66.2 °F 88% 29.90 in 0.2 mi Calm Calm - N/A Fog Fog
4:15 AM 68.0 °F - 64.4 °F 88% 29.90 in 0.2 mi Calm Calm - N/A Fog Fog
4:35 AM 68.0 °F - 66.2 °F 94% 29.90 in 0.2 mi Calm Calm - N/A Fog Fog
4:55 AM 68.0 °F - 66.2 °F 94% 29.90 in 0.5 mi Calm Calm - N/A Fog Fog
5:15 AM 68.0 °F - 66.2 °F 94% 29.90 in 2.0 mi Calm Calm - N/A   Overcast
5:35 AM 69.8 °F - 66.2 °F 88% 29.91 in 2.0 mi WSW 3.5 mph - N/A   Overcast
5:55 AM 68.0 °F - 66.2 °F 94% 29.91 in 0.8 mi Calm Calm - N/A   Overcast
6:15 AM 66.2 °F - 64.4 °F 94% 29.91 in 0.2 mi Calm Calm - N/A Fog Fog
6:35 AM 68.0 °F - 66.2 °F 94% 29.91 in 0.2 mi Calm Calm - N/A Fog Fog
6:55 AM 69.8 °F - 66.2 °F 88% 29.92 in 0.2 mi Calm Calm - N/A Fog Fog
7:15 AM 69.8 °F - 66.2 °F 88% 29.93 in 0.2 mi Calm Calm - N/A Fog Fog
7:35 AM 71.6 °F - 68.0 °F 88% 29.94 in 4.0 mi Calm Calm - N/A   Scattered Clouds
7:55 AM 91.4 °F 98.4 °F 71.6 °F 52% 29.94 in 5.0 mi Calm Calm - N/A   Haze
8:15 AM 71.6 °F - 69.8 °F 94% 29.94 in 7.0 mi Calm Calm - N/A   Overcast
8:35 AM 73.4 °F - 69.8 °F 88% 29.94 in 10.0 mi Calm Calm - N/A   Overcast
8:55 AM 73.4 °F - 71.6 °F 94% 29.95 in 10.0 mi Calm Calm - N/A   Overcast
9:15 AM 73.4 °F - 71.6 °F 94% 29.96 in 10.0 mi Calm Calm - N/A   Overcast
9:35 AM 73.4 °F - 71.6 °F 94% 29.96 in 10.0 mi Calm Calm - N/A   Mostly Cloudy
9:55 AM 75.2 °F - 73.4 °F 94% 29.96 in 10.0 mi South 3.5 mph - N/A   Mostly Cloudy
10:15 AM 78.8 °F - 73.4 °F 83% 29.96 in 10.0 mi SSE 3.5 mph - N/A   Scattered Clouds
10:35 AM 78.8 °F - 75.2 °F 89% 29.96 in 10.0 mi SSE 3.5 mph - N/A   Scattered Clouds
10:55 AM 80.6 °F 86.2 °F 75.2 °F 84% 29.96 in 10.0 mi SSW 5.8 mph - N/A   Scattered Clouds
11:15 AM 80.6 °F 86.2 °F 75.2 °F 84% 29.96 in 10.0 mi SSW 3.5 mph - N/A   Scattered Clouds
11:35 AM 80.6 °F 86.2 °F 75.2 °F 84% 29.96 in 10.0 mi Calm Calm - N/A   Scattered Clouds
11:55 AM 80.6 °F 86.2 °F 75.2 °F 84% 29.95 in 10.0 mi South 4.6 mph - N/A   Scattered Clouds
12:15 PM - - - N/A% 29.95 in 10.0 mi SSW 4.6 mph - N/A   Clear
12:35 PM - - - N/A% 29.94 in 10.0 mi SSW 6.9 mph - N/A   Clear
12:55 PM - - - N/A% 29.94 in 10.0 mi SW 4.6 mph - N/A   Scattered Clouds
1:15 PM - - - N/A% 29.93 in 10.0 mi South 3.5 mph - N/A   Scattered Clouds
1:35 PM - - - N/A% 29.92 in 7.0 mi SW 6.9 mph - N/A   Mostly Cloudy
1:55 PM - - - N/A% 29.90 in 10.0 mi SSW 4.6 mph - N/A   Clear
2:15 PM - - - N/A% 29.89 in 10.0 mi Calm Calm - N/A Rain Light Rain
2:35 PM - - - N/A% 29.88 in 10.0 mi South 3.5 mph - N/A   Clear
2:55 PM - - - N/A% 29.88 in 10.0 mi SSW 4.6 mph - N/A   Clear
3:15 PM - - - N/A% 29.89 in 10.0 mi SW 3.5 mph - N/A   Clear
3:35 PM - - - N/A% 29.89 in 10.0 mi SSW 5.8 mph - N/A   Scattered Clouds
3:55 PM - - - N/A% 29.89 in 10.0 mi SSW 5.8 mph - N/A   Scattered Clouds
4:15 PM - - - N/A% 29.89 in 10.0 mi SSW 6.9 mph - N/A   Scattered Clouds
4:35 PM - - - N/A% 29.90 in 10.0 mi SSW 6.9 mph - N/A   Mostly Cloudy
4:55 PM - - - N/A% 29.89 in 10.0 mi South 5.8 mph - N/A   Mostly Cloudy
5:15 PM 80.6 °F 86.2 °F 75.2 °F 84% 29.89 in 10.0 mi SSW 5.8 mph - N/A   Mostly Cloudy
5:35 PM 80.6 °F 86.2 °F 75.2 °F 84% 29.90 in 10.0 mi SSW 6.9 mph - N/A   Scattered Clouds
5:55 PM 80.6 °F 86.2 °F 75.2 °F 84% 29.90 in 10.0 mi SSW 5.8 mph - N/A   Scattered Clouds
6:15 PM - - - N/A% 29.90 in 10.0 mi SW 8.1 mph - N/A   Scattered Clouds
6:35 PM - - - N/A% 29.90 in 10.0 mi SW 6.9 mph - N/A Rain Light Rain
6:55 PM - - - N/A% 29.90 in 10.0 mi Calm Calm - N/A   Scattered Clouds
7:15 PM 80.6 °F 86.2 °F 75.2 °F 84% 29.90 in 10.0 mi Calm Calm - N/A   Scattered Clouds
7:35 PM - - - N/A% 29.91 in 10.0 mi WNW 4.6 mph - N/A Rain Light Rain
7:55 PM - - - N/A% 29.91 in 10.0 mi Calm Calm - N/A   Scattered Clouds
8:15 PM 118.4 °F - - N/A% 29.92 in 10.0 mi Calm Calm - N/A   Mostly Cloudy
8:35 PM 78.8 °F - 75.2 °F 89% 29.93 in 10.0 mi North 6.9 mph - N/A   Overcast
8:55 PM 73.4 °F - 71.6 °F 94% 29.94 in 10.0 mi NNE 4.6 mph - N/A   Overcast
9:15 PM 73.4 °F - 71.6 °F 94% 29.95 in 10.0 mi ENE 4.6 mph - N/A   Overcast
9:35 PM 73.4 °F - 71.6 °F 94% 29.95 in 10.0 mi Calm Calm - N/A   Overcast
9:55 PM 73.4 °F - 69.8 °F 88% 29.94 in 10.0 mi Calm Calm - N/A   Overcast
10:15 PM 73.4 °F - 69.8 °F 88% 29.94 in 10.0 mi Calm Calm - N/A   Mostly Cloudy
10:35 PM 73.4 °F - 69.8 °F 88% 29.93 in 10.0 mi Calm Calm - N/A   Scattered Clouds
10:55 PM 71.6 °F - 69.8 °F 94% 29.93 in 10.0 mi Calm Calm - N/A   Scattered Clouds
11:15 PM 71.6 °F - 69.8 °F 94% 29.94 in 10.0 mi Calm Calm - N/A   Scattered Clouds
11:35 PM 71.6 °F - 69.8 °F 94% 29.93 in 10.0 mi Calm Calm - N/A   Scattered Clouds
11:55 PM 71.6 °F - 69.8 °F 94% 29.93 in 10.0 mi Calm Calm - N/A   Mostly Cloudy